Preview of NWS' New Version of Forecast
This preview is not operational and should not be used for support decisions.
Latest weather observations around

London, London-Corbin Airport-Magee Field (KLOZ)

Using English Units (Switch to International System of Units)
Date/ Time (EST) Wind (mph) Vis. (mi) Weather Sky Cond. Temp (°F) Rel. Humidity Wind Chill (°F) Heat Index (°F) Pressure Precip. (in)
Air Dwpt 6 hour Altimeter (inHg) Sea level (inHg) 1 hr 3 hr 6 hr
Max Min
Feb 19 21:53 S 7 10 Clear CLR 63 55     75%     30.21 30.19      
Feb 19 20:53 S 7 10 Clear CLR 63 54     72%     30.21 30.19      
Feb 19 19:53 S 3 10 Clear CLR 63 53     70%     30.21 30.19      
Feb 19 18:53 S 7 10 Mostly Clear FEW070 65 54     68%     30.21 30.19      
Feb 19 17:53   10 Mostly Clear FEW070 68 53     59%     30.2 30.17      
Feb 19 16:53 SSW 16 10 Mostly Clear FEW070 69 53     57%     30.19 30.17      
Feb 19 15:53 S 17 10 Partly Cloudy SCT046 70 54     57%     30.18 30.16      
Feb 19 14:53 SW 14 10 Cloudy FEW040 OVC075 72 54     53%   71 30.19 30.16      
Feb 19 13:53 SSW 15 10 Cloudy SCT041 BKN050 OVC070 72 56     57%   72 30.19 30.16      
Feb 19 12:53 SSW 14 10 Cloudy SCT036 BKN055 OVC070 69 56     63%     30.2 30.18      
Feb 19 11:53   10 Partly Cloudy FEW028 SCT036 68 56     65%     30.22 30.2      
Feb 19 10:53 S 17 10 Mostly Cloudy SCT022 BKN030 64 56     75%     30.22 30.21      
Feb 19 09:53 S 9 10 Cloudy OVC022 60 54     80%     30.24 30.23      
Feb 19 09:39 S 10 10 Mostly Cloudy BKN022 61 54     78%     30.23        
Feb 19 08:53 S 10 10 Mostly Clear FEW021 60 54     80%     30.22 30.21      
Feb 19 07:53 S 7 10 Mostly Cloudy SCT060 BKN120 58 53     84%     30.22 30.21      
Feb 19 06:53 S 8 10 Cloudy FEW060 BKN070 OVC110 58 53     84%     30.2 30.2     0
Feb 19 05:53 S 9 10 Mostly Cloudy BKN065 58 52     81%     30.2 30.19      
Feb 19 04:53 S 9 10 Cloudy OVC065 58 51     78%     30.19 30.18      
Feb 19 03:53 S 7 10 Cloudy OVC060 57 50     77%     30.18 30.17   0  
Feb 19 02:53 SSE 5 10 Cloudy FEW050 OVC070 55 50     83%     30.17 30.16 0    
Feb 19 01:53 S 8 5 Heavy Rain OVC043 56 48     75%     30.18 30.17 0    
Feb 19 00:53 S 8 10 Light Rain OVC031 56 43     62%     30.16 30.15 0   0
Feb 19 00:45 SSW 6 10 Cloudy OVC031 55 42     62%     30.16        
Feb 19 00:20 S 8 10 Cloudy BKN029 OVC100 54 40     59%     30.15        
Feb 18 23:53 SE 5 10 Cloudy OVC038 51 37     59%     30.14 30.14      
Feb 18 22:53 SSE 3 10 Cloudy OVC035 50 35     56% 49   30.15 30.16      
Feb 18 21:53 SE 5 10 Partly Cloudy SCT080 46 35     65% 44   30.17 30.18      
Feb 18 20:53 Calm 10 Clear CLR 46 35     65%     30.18 30.19      
Feb 18 19:53 Calm 10 Clear CLR 47 34     60%     30.19 30.19      
Feb 18 18:53 Calm 10 Clear CLR 50 33     52%     30.19 30.2      
Feb 18 17:53 SE 5 10 Clear CLR 55 31     40%     30.19 30.19      
Feb 18 16:53 SE 7 10 Clear CLR 56 32     40%     30.19 30.2      
Feb 18 15:53 E 6 10 Clear CLR 55 33     43%     30.21 30.22      
Feb 18 14:53 Calm 10 Clear CLR 52 32     46%     30.23 30.23      
Feb 18 13:53 ESE 8 10 Clear CLR 50 33     52% 47   30.26 30.27      
Feb 18 12:53 E 8 10 Clear CLR 46 33     60% 42   30.3 30.31      
Feb 18 11:53 SE 6 10 Partly Cloudy SCT019 44 34     67% 41   30.33 30.34      
Feb 18 11:48 7 10 Mostly Cloudy BKN019 43 34     70% 39   30.34        
Feb 18 11:40 E 8 10 Partly Cloudy SCT017 42 34     73% 37   30.34        
Feb 18 10:53 E 7 10 Mostly Cloudy BKN015 40 34     79% 35   30.35 30.36      
Feb 18 10:15 E 8 10 Mostly Cloudy BKN014 40 34     79% 34   30.36        
Feb 18 10:06 E 8 10 Partly Cloudy SCT013 39 33     79% 33   30.35        
Feb 18 09:53 ESE 9 10 Mostly Cloudy BKN014 39 33     79% 33   30.36 30.37      
Feb 18 08:53 3 10 Clear CLR 37 32     82% 35   30.36 30.37      
Feb 18 07:53 NNE 3 10 Clear CLR 34 31     88% 31   30.33 30.35      
Feb 18 06:53 N 6 10 Clear CLR 33 31     92% 28   30.31 30.33      
Feb 18 05:53 Calm 10 Mostly Clear FEW021 35 32     88%     30.3 30.32      
Feb 18 05:45 Calm 10 Partly Cloudy SCT021 36 32     85%     30.3        
Feb 18 04:53 WNW 5 10 Mostly Cloudy BKN024 36 32     85% 32   30.29 30.3      
Feb 18 03:53 WNW 3 10 Mostly Cloudy BKN025 37 32     82% 35   30.27 30.29      
Feb 18 03:14 NW 6 10 Partly Cloudy SCT025 39 33     79% 35   30.26        
Feb 18 02:53 WNW 6 10 Mostly Cloudy BKN024 BKN030 40 35     83% 36   30.26 30.27      
Feb 18 01:53 WNW 10 10 Cloudy SCT015 OVC023 41 36     82% 35   30.24 30.26      
Feb 18 00:53 W 10 10 Cloudy OVC021 43 38     82% 37   30.22 30.23     0
Feb 17 23:53 W 10 10 Cloudy BKN015 OVC020 43 40     89% 37   30.19 30.2 0    
Feb 17 23:50 W 11 10 Cloudy OVC015 43 39     87% 37   30.19   0    
Feb 17 22:53 W 10 10 Cloudy FEW009 BKN012 OVC022 44 41     89% 39   30.18 30.19 0    
Feb 17 22:10 W 11 10 Cloudy BKN010 OVC016 45 42     90% 39   30.16        
Feb 17 21:53 W 9 8 Cloudy OVC008 45 42     90% 40   30.16 30.17      
Feb 17 20:53 WSW 9 10 Cloudy OVC006 44 42     93% 39   30.13 30.14      
Feb 17 20:03 W 10 10 Cloudy OVC008 44 42     93% 39   30.11        
Feb 17 19:53 WSW 7 10 Cloudy OVC010 44 41     89% 40   30.1 30.11      
Feb 17 18:53 SW 5 10 Cloudy OVC012 43 41     93% 40   30.06 30.07     1
Feb 17 15:53 SSE 3 5 Light Rain and Fog/Mist BKN007 BKN055 OVC070 41 39     93% 39   30.03 30.05 0 0  
Feb 17 14:53 ESE 8 5 Light Rain and Fog/Mist BKN005 BKN065 OVC080 40 39     97% 34   30.01   0    
Feb 17 14:32 ESE 8 3 Rain and Fog/Mist SCT005 SCT055 OVC075 40 38     93% 34   30.02   0    
Feb 17 14:16 ESE 5 2.5 Rain and Fog/Mist BKN006 BKN047 OVC070 40 39     97% 37   30.05   0    
Feb 17 14:07 NE 3 1.75 Heavy Rain and Fog/Mist BKN006 BKN040 OVC048 40 39     97% 38   30.06   0    
Feb 17 13:57 NNW 6 2 Rain and Fog/Mist BKN005 OVC045 40 38     93% 36   30.09   0    
Feb 17 13:53 NW 8 3 Rain and Fog/Mist SCT005 BKN041 OVC070 40 38     93% 34   30.1   0    
Feb 17 13:51 NW 8 3 Rain and Fog/Mist SCT005 OVC045 39 39     100% 34   30.09   0    
Feb 17 13:19 NE 7 2.5 Rain and Fog/Mist SCT005 BKN050 OVC075 40 39     97% 35   30.04   0    
Feb 17 13:13 NNE 7 2 Rain and Fog/Mist BKN006 BKN015 OVC080 40 38     93% 35   30.05   0    
Feb 17 12:53 N 6 1.75 Heavy Rain and Fog/Mist BKN005 OVC014 40 38     93% 36   30.06 30.08 0   0
Feb 17 12:17 NNW 10 1.75 Heavy Rain and Fog/Mist BKN006 OVC036 40 38     93% 33   30.06   0    
Feb 17 12:08 NNW 13 2 Light Rain and Fog/Mist BKN004 BKN008 OVC037 41 39     93% 34   30.04   0    
Feb 17 11:53 NNW 7 2 Rain and Fog/Mist FEW008 OVC037 41 39     93% 36   30.05 30.06 0    
Feb 17 11:49 NNW 6 2.5 Rain and Fog/Mist FEW008 BKN037 OVC055 41 39     93% 37   30.05   0    
Feb 17 11:41 NNW 6 3 Light Rain and Fog/Mist BKN038 OVC055 41 39     93% 37   30.05   0    
Feb 17 11:28 Calm 2.5 Light Rain and Fog/Mist OVC055 41 39     93%     30.03   0    
Feb 17 10:53 ESE 5 3 Light Rain and Fog/Mist OVC060 41 39     93% 38   30.02   0    
Feb 17 09:53 E 5 5 Light Rain and Fog/Mist OVC075 40 37     89% 37   30.08 30.09 0 0  
Feb 17 08:53 Calm 5 Light Rain and Fog/Mist OVC085 39 36     89%     30.11 30.12 0    
Feb 17 07:53 E 3 5 Fog/Mist OVC110 39 36     89% 37   30.12 30.13      
Feb 17 06:53 E 3 6 Fog/Mist CLR 38 35     89% 36   30.12 30.13      
Feb 17 06:09 E 5 6 Fog/Mist SCT009 37 35     92% 33   30.14        
Feb 17 05:53 Calm 6 Fog/Mist FEW019 37 35     92%     30.15 30.16      
Feb 17 05:33 Calm 6 Fog/Mist SCT008 SCT019 37 34     89%     30.16        
Feb 17 04:53 Calm 7 Mostly Cloudy BKN008 36 34     92%     30.18 30.19      
Feb 17 04:51 Calm 7 Mostly Cloudy BKN008 36 34     93%     30.18        
Feb 17 04:30 Calm 8 Partly Cloudy SCT008 37 34     89%     30.19        
Feb 17 04:13 ENE 3 8 Mostly Cloudy FEW008 BKN027 37 34     89% 35   30.19        
Feb 17 03:53 NE 5 9 Cloudy OVC027 37 34     89% 33   30.2 30.21      
Feb 17 02:53 NNE 3 10 Cloudy OVC029 38 35     89% 36   30.22 30.22      
Feb 17 01:53 NNE 5 10 Cloudy OVC029 38 34     85% 34   30.23 30.24      
Feb 17 01:41 NNE 7 10 Cloudy OVC029 38 34     85% 33   30.23        
Feb 17 01:29 N 6 10 Cloudy FEW013 OVC030 38 34     85% 33   30.23        
Feb 17 00:53 NNE 6 9 Cloudy OVC029 39 35     86% 35   30.23 30.24      
Feb 17 00:19 N 6 9 Cloudy SCT013 OVC029 39 35     86% 35   30.23        
Feb 16 23:53 N 5 8 Cloudy BKN013 OVC029 40 35     83% 37   30.25 30.26      
Feb 16 23:40 N 6 8 Cloudy BKN013 OVC029 40 35     83% 36   30.24        
Feb 16 23:22 N 6 8 Cloudy SCT013 OVC030 40 36     86% 36   30.24        
Feb 16 22:53 N 6 8 Cloudy OVC029 40 35     83% 36   30.24 30.24      
Feb 16 22:41 N 6 8 Cloudy OVC029 40 36     86% 36   30.24        
Jun 11 23:53 Calm 10 Clear CLR 71 62     73%   71 30.14 30.1      
Jun 11 02:53 Calm 10 Clear   64 60     87%     30.13 30.09      
Jun 10 10:53 SSW 5 10 Clear CLR 75 58     55%   75 30.12 30.09      
Jun 10 03:53 Calm 9 Clear CLR 57 54     89%     30.03 30      
Jun 09 06:15 Calm 1.75 Fog/Mist OVC001 51 49     92%     29.96        
Jun 08 19:53 NW 8 10 Mostly Cloudy BKN085 69 51     53%     29.91 29.89      
Jun 08 14:53 WNW 9 10 Cloudy SCT033 BKN047 OVC080 69 54     59%     29.94 29.92      
Jun 08 11:53 ENE 8 10 Mostly Cloudy BKN017 66 55     68%     29.98 29.95      
Jun 08 07:53 NNE 5 10 Cloudy BKN048 OVC070 55 51     86%     29.97 29.95      
Jun 07 21:53 NNE 9 10 Clear CLR 60 51     72%     29.99 29.96      
Jun 05 15:20 NNE 3 10 Mostly Cloudy FEW017 SCT029 BKN095 71 64     79%   72 29.82   0    
Jun 05 15:12 NNE 3 10 Mostly Cloudy SCT017 BKN029 BKN055 71 64     79%   72 29.82   0